www.pogodaiklimat.ru

Погода и климат >> Архив погоды >> Великобритания >> London


АРХИВ ПОГОДЫ в London

Время (UTC), дата Ветер
(напр.,м/с)
 
Видим.   Явления Облачность Т
(С)
Тd
(С)
f
(%)
Тe
(С)
Тes
(С)
Комфортность P
(гПа)
Po
(гПа)
Тmin
(С)
Tmax
(С)
R
(мм)
R24
(мм)
S
(см)
10 11.10 Ю 7 26 км н/о +18.3 +13.4 73 +18 +18 тепло 1003.8 1000.9
11 11.10 Ю 9
{13}
26 км н/о +20.2 +14.4 69 +22 +22 комфорт 1003.7 1000.8
12 11.10 Ю 7 40 км н/о +20.8 +13.9 65 +23 +23 комфорт 1003.3 1000.4
13 11.10 Ю 7 30 км н/о +19.8 +13.8 68 +21 +21 комфорт 1003.1 1000.2
14 11.10 Ю 8 26 км слаб. морось с дождем н/о +18.8 +14.1 74 +19 +19 тепло 1003.7 1000.8
15 11.10 Ю 8 30 км в посл. час дождь н/о +18.8 +13.8 73 +19 +19 тепло 1003.8 1000.9
16 11.10 Ю 7 30 км в посл. час дождь н/о +18.4 +13.6 74 +18 +18 тепло 1004.3 1001.4
17 11.10 Ю 7 30 км слаб. ливневой дождь н/о +17.5 +14.2 81 +17 +17 тепло 1005.0 1002.0
18 11.10 Ю 4 6000 м дождь н/о +16.3 +15.1 93 +16 +16 тепло 1005.4 1002.5 +21.4 1
19 11.10 Ю 4 45 км в посл. час дождь н/о +15.2 +12.8 86 +14 +14 тепло 1005.6 1002.7
20 11.10 Ю 4 30 км н/о +15.2 +13.0 87 +14 +14 тепло 1006.2 1003.3
21 11.10 Ю 4 24 км н/о +15.0 +13.0 88 +14 +14 тепло 1006.9 1003.9
22 11.10 Ю 4 17 км н/о +14.1 +12.7 91 +13 +13 тепло 1007.0 1004.1
23 11.10 Ю 4 18 км н/о +13.8 +12.8 94 +12 +12 тепло 1007.7 1004.7
00 12.10 Ю 4 16 км н/о +13.6 +12.3 92 +12 +12 тепло 1007.6 1004.6 2
01 12.10 Ю 5 23 км н/о +14.1 +12.0 87 +12 +12 тепло 1008.2 1005.2
02 12.10 Ю 4 19 км н/о +14.1 +11.9 87 +13 +13 тепло 1008.3 1005.3
03 12.10 Ю 5 18 км н/о +14.0 +11.8 87 +12 +12 тепло 1008.4 1005.4
04 12.10 Ю 6 18 км н/о +14.7 +12.3 86 +13 +13 тепло 1008.6 1005.6
05 12.10 Ю 7 17 км в посл. час дождь н/о +15.0 +12.4 84 +13 +13 тепло 1008.5 1005.6
06 12.10 Ю 7 17 км н/о +15.2 +12.2 82 +13 +13 тепло 1008.3 1005.3 +13.5 2
07 12.10 Ю 6 20 км н/о +15.9 +11.9 77 +15 +15 тепло 1009.0 1006.1
08 12.10 Ю 6 22 км н/о +16.8 +12.1 74 +16 +16 тепло 1009.4 1006.4
09 12.10 Ю 8 22 км н/о +17.6 +12.5 72 +17 +17 тепло 1009.2 1006.2
10 12.10 Ю 8
{14}
18 км н/о +18.6 +12.4 67 +18 +18 тепло 1010.0 1007.0
11 12.10 Ю 9-15
{15}
30 км н/о +19.8 +11.3 58 +21 +21 комфорт 1009.9 1006.9
12 12.10 Ю 10
{16}
30 км н/о +19.9 +11.4 58 +21 +21 комфорт 1009.9 1007.0
13 12.10 Ю 10-15
{16}
45 км н/о +20.2 +10.4 53 +21 +21 комфорт 1009.9 1007.0
14 12.10 Ю 10-15
{17}
17 км н/о +20.8 +11.2 54 +22 +22 комфорт 1009.9 1006.9
15 12.10 Ю 9-14
{16}
30 км н/о +20.4 +12.8 62 +22 +22 комфорт 1009.7 1006.7
16 12.10 Ю 10-16
{16}
21 км н/о +20.1 +13.4 65 +21 +21 комфорт 1009.7 1006.7
17 12.10 Ю 8
{14}
35 км н/о +20.2 +13.5 65 +22 +22 комфорт 1009.9 1007.0
18 12.10 Ю 12 30 км н/о +20.7 +13.0 61 +22 +22 комфорт 1010.4 1007.4 +21.2
19 12.10 ЮЗ 11-16
{19}
40 км н/о +21.4 +12.4 56 +24 +24 комфорт 1010.7 1007.7
20 12.10 Ю 10-15
{20}
45 км н/о +21.3 +12.2 56 +23 +23 комфорт 1010.9 1008.0
21 12.10 Ю 9
{18}
45 км н/о +21.3 +12.2 56 +23 +23 комфорт 1011.3 1008.4
22 12.10 Ю 9
{17}
45 км н/о +20.7 +12.7 60 +22 +22 комфорт 1011.4 1008.5
23 12.10 Ю 9-15
{15}
30 км н/о +20.1 +13.4 65 +21 +21 комфорт 1011.5 1008.6
00 13.10 Ю 8-14
{14}
35 км н/о +20.2 +13.6 66 +22 +22 комфорт 1011.9 1008.9
01 13.10 Ю 7 40 км н/о +20.1 +14.1 68 +22 +22 комфорт 1011.7 1008.8
02 13.10 Ю 7 30 км н/о +19.9 +13.8 68 +21 +21 комфорт 1011.5 1008.6
03 13.10 Ю 7 35 км в посл. час дождь н/о +19.8 +13.9 69 +21 +21 комфорт 1011.2 1008.2
04 13.10 Ю 7 45 км в посл. час дождь н/о +19.6 +14.0 70 +21 +21 комфорт 1010.8 1007.9
05 13.10 Ю 7 45 км н/о +19.7 +13.6 68 +21 +21 комфорт 1010.6 1007.7
06 13.10 Ю 7 45 км н/о +19.0 +13.3 70 +20 +20 тепло 1010.4 1007.5 +18.8 0.2
07 13.10 Ю 6 35 км н/о +19.2 +13.4 69 +20 +20 тепло 1010.6 1007.6
08 13.10 Ю 6 40 км н/о +19.9 +13.1 65 +21 +21 комфорт 1011.1 1008.1
09 13.10 Ю 5 40 км в посл. час дождь н/о +19.7 +14.1 70 +21 +21 комфорт 1011.5 1008.6
10 13.10 Ю 7 27 км в посл. час дождь н/о +20.2 +13.7 66 +22 +22 комфорт 1010.8 1007.9
11 13.10 Ю 7 30 км н/о +20.6 +13.8 65 +23 +23 комфорт 1010.4 1007.5
12 13.10 Ю 8 27 км н/о +22.0 +15.0 64 +25 +25 комфорт 1009.2 1006.3 0.6
13 13.10 Ю 8
{13}
30 км в посл. час дождь н/о +23.3 +15.9 63 +28 +28 душно 1008.5 1005.6
14 13.10 Ю 8-13
{14}
45 км н/о +23.6 +16.3 64 +27 +27 жарко 1007.7 1004.8
15 13.10 Ю 9
{13}
30 км н/о +22.5 +16.1 67 +27 +27 душно 1007.7 1004.8
16 13.10 Ю 7 28 км н/о +21.9 +16.0 69 +26 +26 душно 1007.3 1004.4
17 13.10 Ю 6 30 км н/о +21.2 +15.9 72 +25 +25 комфорт 1007.2 1004.3
18 13.10 Ю 6 30 км н/о +20.5 +15.6 73 +23 +23 комфорт 1007.5 1004.6 +23.7 0.6
19 13.10 Ю 6 26 км н/о +20.0 +15.5 75 +22 +22 комфорт 1007.9 1005.0
20 13.10 Ю 6 30 км н/о +19.8 +15.4 76 +22 +22 комфорт 1007.8 1004.9
21 13.10 Ю 5 30 км н/о +20.2 +15.4 74 +23 +23 комфорт 1007.8 1004.8
22 13.10 Ю 5 27 км н/о +19.7 +15.1 75 +22 +22 комфорт 1007.1 1004.1
23 13.10 Ю 5 26 км н/о +19.3 +15.3 78 +21 +21 комфорт 1006.8 1003.8
00 14.10 Ю 4 25 км н/о +18.5 +15.6 83 +19 +19 тепло 1006.5 1003.5
01 14.10 ЮЗ 7 40 км в посл. час дождь н/о +17.5 +14.0 80 +17 +17 тепло 1006.9 1004.0
02 14.10 Ю 3 40 км н/о +16.6 +13.5 82 +16 +16 тепло 1006.2 1003.2
03 14.10 З 4 45 км н/о +16.0 +13.5 85 +15 +15 тепло 1006.5 1003.5
04 14.10 З 3 35 км н/о +15.5 +12.4 82 +15 +15 тепло 1006.4 1003.5
05 14.10 СЗ 3 40 км в посл. час дождь н/о +15.2 +11.7 80 +15 +15 тепло 1005.5 1002.5
06 14.10 СВ 1 2800 м сильн. дождь н/о +14.0 +12.6 91 +14 +14 тепло 1005.4 1002.4 +14.0 2
07 14.10 СВ 3 19 км слаб. ливневой дождь н/о +13.8 +12.8 94 +13 +13 тепло 1004.7 1001.7
08 14.10 С 3 7000 м дождь н/о +13.2 +11.9 92 +12 +12 тепло 1005.4 1002.4
09 14.10 С 3 40 км слаб. дождь н/о +12.8 +11.7 93 +11 +11 по сезону 1005.1 1002.2
10 14.10 С 3 21 км слаб. морось н/о +13.1 +12.1 94 +12 +12 по сезону 1005.0 1002.0
11 14.10 СЗ 3 7000 м дождь н/о +12.8 +12.2 96 +11 +11 по сезону 1006.4 1003.4
12 14.10 С 3 10 км в посл. час дождь н/о +13.0 +12.1 94 +12 +12 по сезону 1005.3 1002.3 9
13 14.10 С 4 8000 м слаб. морось н/о +12.6 +11.3 92 +11 +11 по сезону 1005.6 1002.6
14 14.10 С 4 26 км в посл. час дождь н/о +12.2 +11.0 92 +10 +10 по сезону 1006.2 1003.2
15 14.10 С 5 4900 м слаб. морось н/о +11.2 +10.0 92 +9 +9 прохладно 1006.9 1003.8
16 14.10 С 4 7000 м в посл. час морось н/о +10.9 +9.8 93 +8 +8 по сезону 1007.2 1004.1
17 14.10 СВ 4 7000 м слаб. морось н/о +10.3 +9.3 94 +8 +8 по сезону 1008.1 1005.0
18 14.10 С 4 7000 м в посл. час морось н/о +10.1 +9.1 94 +7 +7 прохладно 1008.5 1005.4 +14.0 11
19 14.10 С 4 10 км н/о +10.2 +9.2 94 +8 +8 по сезону 1008.8 1005.7
20 14.10 С 3 6000 м дымка н/о +10.0 +9.2 95 +8 +8 по сезону 1008.9 1005.9
21 14.10 С 3 4600 м сильн. дождь н/о +9.8 +9.2 96 +7 +7 прохладно 1008.9 1005.8
22 14.10 СВ 4 7000 м дождь н/о +10.2 +9.6 96 +8 +8 тепло 1008.8 1005.7
23 14.10 С 3 6000 м дождь н/о +10.1 +9.7 97 +8 +8 по сезону 1008.5 1005.5
00 15.10 СВ 3 5000 м сильн. дождь н/о +10.2 +9.9 98 +8 +8 по сезону 1008.9 1005.8 17
01 15.10 СВ 4 20 км слаб. дождь н/о +10.7 +10.2 97 +8 +8 тепло 1008.8 1005.8
02 15.10 СВ 2 2200 м сильн. дождь н/о +10.8 +10.3 97 +9 +9 тепло 1008.6 1005.5
03 15.10 СВ 5 50 км слаб. дождь н/о +11.1 +10.5 96 +8 +8 по сезону 1007.4 1004.4
04 15.10 СВ 4 40 км в посл. час дождь н/о +11.4 +10.8 96 +9 +9 тепло 1007.4 1004.4
05 15.10 СВ 3 4400 м слаб. ливневой дождь н/о +11.6 +11.1 97 +10 +10 тепло 1008.1 1005.1
06 15.10 С 3 3200 м в посл. час дождь н/о +11.7 +11.4 98 +10 +10 по сезону 1008.4 1005.4 +9.8 25
07 15.10 С 3 5000 м в посл. час дождь н/о +11.8 +11.5 98 +10 +10 тепло 1008.9 1005.8
08 15.10 С 3 24 км н/о +12.1 +11.6 97 +10 +10 по сезону 1009.1 1006.1
09 15.10 СВ 3 19 км в посл. час дождь н/о +12.4 +11.8 96 +11 +11 по сезону 1009.9 1006.9
10 15.10 С 3 17 км н/о +12.9 +12.0 94 +12 +12 по сезону 1010.4 1007.4
11 15.10 СВ 3 5000 м дымка н/о +13.1 +12.3 95 +12 +12 по сезону 1011.1 1008.1
12 15.10 СВ 3 2800 м дымка н/о +13.2 +12.6 96 +12 +12 по сезону 1011.3 1008.3 0.2
13 15.10 СВ 4 5000 м слаб. морось н/о +13.5 +13.0 97 +12 +12 тепло 1011.5 1008.5
14 15.10 СВ 3 15 км в посл. час морось н/о +13.9 +13.1 95 +13 +13 по сезону 1011.7 1008.7
15 15.10 СВ 3 8000 м в посл. час дождь н/о +13.7 +13.0 96 +12 +12 по сезону 1012.2 1009.2
16 15.10 СВ 3 4400 м дымка н/о +13.5 +12.9 96 +12 +12 тепло 1012.7 1009.7
17 15.10 СВ 3 9000 м дымка н/о +13.5 +13.0 97 +12 +12 по сезону 1013.0 1010.0
18 15.10 СВ 3 8000 м дымка н/о +13.6 +13.1 97 +12 +12 по сезону 1013.6 1010.5 +13.9 0.2
19 15.10 СВ 3 9000 м дымка н/о +13.5 +12.9 96 +12 +12 тепло 1014.0 1011.0
20 15.10 СВ 3 6000 м дымка н/о +13.4 +12.7 96 +12 +12 тепло 1014.4 1011.4
21 15.10 В 2 3500 м дымка н/о +13.4 +13.1 98 +13 +13 тепло 1014.5 1011.5
22 15.10 В 2 1900 м дымка н/о +13.5 +13.3 99 +13 +13 тепло 1014.9 1011.9
23 15.10 В 2 700 м туман н/о +13.9 +13.8 99 +14 +14 тепло 1015.1 1012.1
00 16.10 В 2 700 м туман н/о +14.0 +13.9 99 +14 +14 тепло 1015.1 1012.1
01 16.10 В 2 800 м туман н/о +14.2 +14.1 99 +14 +14 тепло 1015.0 1012.0
02 16.10 В 2 2900 м в посл. час туман н/о +14.4 +14.3 99 +14 +14 тепло 1014.6 1011.6
03 16.10 В 3 2700 м дымка н/о +14.4 +14.3 99 +13 +13 тепло 1014.8 1011.8
04 16.10 В 2 1600 м дымка н/о +14.3 +14.2 99 +14 +14 тепло 1014.4 1011.4
05 16.10 ЮВ 2 3800 м дымка н/о +14.3 +14.1 99 +14 +14 тепло 1014.7 1011.6
06 16.10 ЮВ 2 5000 м дымка н/о +14.3 +13.8 97 +14 +14 тепло 1015.1 1012.1 +13.3
07 16.10 Ю 2 6000 м дымка н/о +14.4 +13.6 95 +14 +14 тепло 1015.5 1012.5
08 16.10 Ю 2 6000 м дым н/о +14.9 +13.6 92 +15 +15 тепло 1015.9 1012.9
09 16.10 Ю 2 7000 м дым н/о +16.0 +14.3 90 +16 +16 тепло 1016.0 1013.1
10 16.10 ЮВ 2 7000 м дым н/о +17.3 +15.0 86 +18 +18 тепло 1015.6 1012.7
11 16.10 Ю 5 13 км н/о +18.8 +14.8 78 +20 +20 тепло 1015.4 1012.4
12 16.10 Ю 5 35 км н/о +19.8 +14.7 72 +22 +22 комфорт 1015.3 1012.3
13 16.10 ЮЗ 6 40 км н/о +20.0 +15.1 73 +22 +22 комфорт 1015.5 1012.6
14 16.10 Ю 7 30 км н/о +18.6 +13.4 72 +19 +19 тепло 1015.6 1012.6
15 16.10 ЮЗ 5 29 км н/о +17.7 +13.7 77 +17 +17 тепло 1015.8 1012.8
16 16.10 Ю 4 18 км н/о +17.2 +13.7 80 +17 +17 тепло 1015.6 1012.7
17 16.10 Ю 4 15 км н/о +17.0 +14.0 82 +16 +16 тепло 1016.0 1013.0
18 16.10 ЮЗ 4 15 км н/о +16.7 +14.1 85 +16 +16 тепло 1016.4 1013.4 +20.4
19 16.10 ЮЗ 5 30 км н/о +16.3 +12.7 79 +15 +15 тепло 1016.8 1013.8
20 16.10 ЮЗ 7 50 км н/о +15.6 +11.2 75 +14 +14 тепло 1017.3 1014.3
21 16.10 ЮЗ 4 50 км н/о +14.6 +10.3 75 +13 +13 тепло 1017.3 1014.3
22 16.10 ЮЗ 4 35 км н/о +14.3 +10.7 79 +13 +13 тепло 1017.3 1014.3
23 16.10 ЮЗ 4 40 км н/о +13.1 +10.8 86 +11 +11 тепло 1017.4 1014.4
00 17.10 ЮЗ 3 35 км н/о +13.1 +10.9 86 +12 +12 тепло 1017.3 1014.3
01 17.10 ЮЗ 3 35 км н/о +12.9 +10.9 88 +12 +12 тепло 1017.4 1014.4
02 17.10 ЮЗ 3 28 км н/о +12.2 +10.7 91 +11 +11 тепло 1017.2 1014.2
03 17.10 Ю 3 22 км н/о +11.9 +10.7 92 +10 +10 по сезону 1017.1 1014.1
04 17.10 Ю 3 16 км н/о +11.6 +10.4 92 +10 +10 тепло 1017.1 1014.1
05 17.10 Ю 2 24 км н/о +11.9 +10.6 92 +11 +11 тепло 1017.5 1014.4
06 17.10 Ю 2 20 км н/о +12.2 +10.8 91 +11 +11 тепло 1017.7 1014.6 +11.3
07 17.10 Ю 2 4000 м в посл. час дождь н/о +12.1 +11.3 95 +11 +11 тепло 1018.2 1015.2
08 17.10 Ю 2 3700 м морось н/о +12.1 +11.7 97 +11 +11 тепло 1018.5 1015.4
09 17.10 ЮЗ 2 3300 м морось н/о +12.8 +12.4 97 +12 +12 по сезону 1019.0 1015.9
10 17.10 З 2 7000 м слаб. морось н/о +13.6 +13.1 97 +13 +13 тепло 1019.1 1016.1
11 17.10 З 2 11 км в посл. час морось н/о +13.7 +13.2 97 +13 +13 по сезону 1019.5 1016.5
12 17.10 В 1 19 км н/о +14.8 +12.8 88 +16 +16 тепло 1019.5 1016.5 2
13 17.10 В 1 7000 м слаб. морось н/о +14.3 +12.9 91 +15 +15 тепло 1019.6 1016.6
14 17.10 ЮВ 2 30 км в посл. час дождь н/о +15.1 +13.6 91 +15 +15 тепло 1019.8 1016.8
15 17.10 В 1 30 км н/о +16.0 +13.2 83 +17 +17 тепло 1020.1 1017.1
16 17.10 СЗ 1 24 км н/о +15.6 +12.7 83 +16 +16 тепло 1020.2 1017.2
17 17.10 СВ 2 9000 м дым н/о +15.4 +12.3 82 +16 +16 тепло 1020.7 1017.7
18 17.10 С 2 26 км н/о +15.2 +12.5 84 +15 +15 тепло 1021.4 1018.4 +16.0 2
19 17.10 СВ 2 26 км н/о +14.7 +11.8 83 +14 +14 тепло 1022.0 1019.0
20 17.10 С 2 13 км н/о +14.2 +11.8 85 +14 +14 тепло 1023.0 1019.9
21 17.10 СВ 2 17 км н/о +14.0 +11.9 87 +14 +14 тепло 1023.6 1020.5
22 17.10 С 2 16 км н/о +13.8 +11.8 88 +13 +13 тепло 1024.1 1021.1
23 17.10 С 2 16 км н/о +13.6 +11.5 87 +13 +13 тепло 1024.5 1021.4
00 18.10 С 2 12 км н/о +13.3 +11.4 88 +13 +13 тепло 1024.9 1021.8
01 18.10 С 2 14 км н/о +12.9 +10.8 87 +12 +12 тепло 1025.1 1022.1
02 18.10 С 2 11 км н/о +12.6 +10.6 88 +12 +12 тепло 1025.3 1022.3
03 18.10 С 3 11 км н/о +11.8 +10.0 89 +10 +10 по сезону 1025.5 1022.4
04 18.10 С 3 9000 м дым н/о +10.8 +9.6 92 +9 +9 тепло 1025.5 1022.4
05 18.10 С 3 9000 м дым н/о +10.2 +9.1 93 +8 +8 по сезону 1025.8 1022.8
06 18.10 СВ 3 9000 м дым н/о +9.6 +8.6 93 +7 +7 по сезону 1025.9 1022.8 +9.6
07 18.10 СВ 3 7000 м дымка н/о +9.9 +9.2 95 +8 +8 по сезону 1026.6 1023.5
08 18.10 СВ 4 10 км н/о +10.8 +9.4 91 +8 +8 по сезону 1027.2 1024.1
09 18.10 СВ 3 17 км н/о +12.0 +9.4 84 +10 +10 по сезону 1027.5 1024.4
10 18.10 СВ 4 28 км н/о +13.5 +8.8 73 +12 +12 тепло 1027.7 1024.6

 

Местоположение метеостанции London (Великобритания): широта 51.48 долгота -0.45 высота над уровнем моря 25 м.

В архиве по умолчанию представлена погода в London за последнюю неделю. Архивные данные за месяц целиком и за предыдущие месяцы, начиная с января 2011 года, Вы можете получить, выбрав интересующий диапазон дат из раскрывающегося списка и нажав кнопку "Ввод!".


*Определитесь, кто Вы:
робот инопланетянин человек

Внимание! Время в таблицах - всемирное. Для получения местного времени необходимо прибавить поправку, которая в London равна 0 ч.

Смотрите также архив погоды в соседних городах и на ближайших метеорологических станциях:

Погода в Northolt (Великобритания) (8 км)
Погода в London, St James Park (Великобритания) (23 км)
Погода в Charlwood (Великобритания) (28 км)
Погода в Farnborough (Великобритания) (31 км)
Погода в Kenley Airfield (Великобритания) (33 км)
Погода в High Wycombe Hqstc (Великобритания) (33 км)
Погода в Odiham (Великобритания) (44 км)
Погода в Benson (Великобритания) (46 км)
Погода в Gravesend-Broadness (Великобритания) (52 км)
Погода в Rothamsted (Великобритания) (66 км)

Пояснения к столбцам:

Ветер - указаны скорость ветра в м/с - средняя за 10 мин, порывы в срок и между сроками (в фигурных скобках) и направление, откуда дует ветер: С - северный, СВ - северо-восточный, В - восточный, ЮВ - юго-восточный, Ю - южный, ЮЗ - юго-западный, З - западный, СЗ - северо-западный.
Видимость - горизонтальная дальность видимости в метрах или километрах. При видимости от 1 до 10 км при отсутствии осадков обычно наблюдается дымка, при ухудшении видимости до 1 км и менее - туман. В сухую погоду видимость может ухудшаться дымом, пылью или мглою.
Явления - указаны атмосферные явления, наблюдавшиеся в срок или в последний час перед сроком; фигурными скобками обозначены явления, наблюдавшиеся между сроками (за 1-3 часа до срока); квадратными скобками обозначены град или гололедные отложения с указанием их диаметра в мм.
Облачность - указаны через наклонную черту общая и нижняя облачность в баллах и высота нижней границы облаков в метрах; квадратными скобками обозначены формы облаков: Ci - перистые, Cs - перисто-слоистые, Cc - перисто-кучевые, Ac - высококучевые, As - высокослоистые, Sc - слоисто-кучевые, Ns - слоисто-дождевые, Cu - кучевые, Cb - кучево-дождевые. Подробнее классификацию облаков см. в Атласе облаков (PDF).
T - Температура воздуха - температура, измеренная на высоте 2 м над землей.
Td - Температура точки росы - температура, при понижении до которой содержащийся в воздухе водяной пар достигнет насыщения.
f - Относительная влажность воздуха - влажноcть воздуха, измеренная на высоте 2 м над землей.
Te - Эффективная температура - температура, которую ощущает одетый по сезону человек в тени. Характеристика душности погоды. При расчете учитывается влияние влажности воздуха и скорости ветра на теплоощущения человека.
Tes - Эффективная температура на солнце - температура, которую ощущает человек, с поправкой на солнечный нагрев. Характеристика знойности погоды. Зависит от высоты солнца над горизонтом, облачности и скорости ветра. Ночью, в пасмурную погоду, а также при ветре 12 м/с и более поправка равна нулю.
P - Атмосферное давление - приведенное к уровню моря атмосферное давление.
Po - Атмосферное давление - измеренное на уровне метеостанции атмосферное давление.
Tmin - Минимальная температура - минимум температуры воздуха на высоте 2 м над землей.
Tmax - Максимальная температура - максимум температуры воздуха на высоте 2 м над землей.
R - Количество осадков - Количество выпавших осадков за период времени, мм. При наведении курсора мыши на число - период времени, за который выпало указанное количество осадков.
R24 - Количество осадков - Количество выпавших осадков за 24 часа, мм.
S - Снежный покров - Высота снежного покрова, см. При наведении курсора мыши на число - состояние снежного покрова и степень покрытия местности в баллах.